Flag for U.S.A. Weather past 2 weeks in Providence, Rhode Island, U.S.A.

Now
46 °F

Passing clouds.


Feels Like: 42 °F
Forecast: 42 / 64 °F
Wind: 7 mph from West

Location: Green State Airport

Current Time: Oct 25, 2014 at 8:28:29 AM

Latest Report: Oct 25, 2014 at 7:51 AM


Visibility: 10 mi

Pressure: 29.80 "Hg

Humidity: 79%

Dew point: 40 °F

Location of ProvidenceLocation

Historic Weather in Providence — Graph

°F

Providence temperature yesterday

Maximum temperature yesterday: 54 °F (at 12:51 PM)
Minimum temperature yesterday: 50 °F (at 1:51 AM)
Average temperature yesterday: 52 °F

Past Weeks' High & Low Weather Summary

 TemperatureHumidityPressure
High79 °F (Oct 15, 12:51 PM)100% (Oct 17, 5:51 AM)30.37 "Hg (Oct 17, 5:51 AM)
Low34 °F (Oct 20, 5:51 AM)38% (Oct 10, 1:51 PM)29.52 "Hg (Oct 18, 3:51 PM)
Average56 °F79%29.94 "Hg
* Reported Oct 10 6:51 AM — Oct 25 6:51 AM, Providence, Weather by CustomWeather, © 2014

Note: Actual official high and low records may vary slightly from our data, if they occured in-between our weather recording intervals... More about our weather records

Advertising

Providence weather history for previous 24 hours

 ConditionsComfort  
Time TempWeatherWind HumidityBarometerVisibility
6:51 AM
Oct 25
43 °FPassing clouds.5 mph86%29.80 "Hg10 mi
5:51 AM45 °FPassing clouds.5 mph80%29.79 "Hg10 mi
4:51 AM45 °FClear.5 mph82%29.78 "Hg10 mi
3:51 AM46 °FClear.6 mph83%29.78 "Hg10 mi
2:51 AM47 °FClear.5 mph80%29.78 "Hg10 mi
1:51 AM47 °FClear.3 mph83%29.77 "Hg10 mi
12:51 AM50 °FPassing clouds.5 mph71%29.77 "Hg10 mi
11:51 PM
Oct 24
50 °FOvercast.7 mph74%29.77 "Hg10 mi
10:51 PM51 °FOvercast.7 mph69%29.75 "Hg10 mi
9:51 PM51 °FOvercast.7 mph69%29.75 "Hg10 mi
8:51 PM51 °FOvercast.8 mph69%29.75 "Hg10 mi
7:51 PM52 °FOvercast.9 mph69%29.75 "Hg10 mi
6:51 PM52 °FOvercast.9 mph69%29.74 "Hg10 mi
5:51 PM53 °FOvercast.6 mph69%29.73 "Hg10 mi
4:51 PM53 °FOvercast.8 mph69%29.72 "Hg10 mi
3:51 PM53 °FOvercast.13 mph69%29.71 "Hg10 mi
2:51 PM54 °FOvercast.13 mph69%29.70 "Hg10 mi
1:51 PM54 °FOvercast.10 mph72%29.69 "Hg10 mi
12:51 PM54 °FOvercast.8 mph74%29.70 "Hg10 mi
11:51 AM53 °FOvercast.12 mph74%29.72 "Hg10 mi
10:51 AM53 °FOvercast.12 mph77%29.72 "Hg10 mi
9:51 AM52 °FOvercast.12 mph80%29.72 "Hg10 mi
8:51 AM51 °FLight rain. Overcast.9 mph86%29.71 "Hg10 mi
Weather by CustomWeather, © 2014

See weather overviewHow to use our weather pages